User: anonymous   Login
Location: 相模原市立博物館
(35.5593°N, 139.3931°E)
Time: 14:04:35
(UTC+09:00)
Language:

PicSat - Orbit

View from above orbital plane
View from above orbital plane
View from above satellite
View from above satellite

Ground track
Ground track

The orbit data is extracted from the following two-line orbital elements,

1 43131U 18004W   22221.46682316  .00022417  00000-0  59459-3 0  9991
2 43131  97.3740 300.9424 0006963 149.5292 210.6359 15.38301650254720
Epoch (UTC): 09 August 2022 11:12:13
Eccentricity: 0.0006963
inclination: 97.3740°
perigee height: 446 km
apogee height: 456 km
right ascension of ascending node: 300.9424°
argument of perigee: 149.5292°
revolutions per day: 15.38301650
mean anomaly at epoch: 210.6359°
orbit number at epoch: 25472

The dashed part of the orbit path shows where the satellite is in the earth's shadow,  

DLR